Simultaneous Nadir Overpasses (SNOs) Predictions

Prediction of SNOs between GOES-16 and AQUA Satellite Orbit:

Table of predicted SNOs for the next 14.0 days since TLE Epoch: 7/23/2022
Index Date Time (GOES-16) GOES-16 Lat,Lon AQUA Lat,Lon Distance(km) Time Diff (sec)
1 07/23/2022 06:55:20 0.03, -75.20 0.74, -78.56 381.73 80
2 07/25/2022 06:42:42 0.02, -75.20 0.10, -75.48 32.14 80
3 07/27/2022 06:27:25 -0.02, -75.21 -0.61, -72.42 317.53 80
4 07/27/2022 18:48:43 0.02, -75.22 -0.46, -77.59 268.23 80
5 07/29/2022 18:38:44 0.01, -75.24 0.15, -74.50 83.36 80
6 07/30/2022 06:59:53 -0.01, -75.24 0.90, -79.63 499.38 80
7 07/31/2022 18:26:06 0.01, -75.26 0.84, -71.43 435.68 80
8 08/01/2022 06:47:14 -0.01, -75.26 0.27, -76.55 146.87 80
9 08/03/2022 06:31:55 -0.00, -75.29 -0.37, -73.47 206.32 80
10 08/03/2022 18:53:13 0.01, -75.31 -0.68, -78.64 379.01 80
11 08/05/2022 18:40:34 0.01, -75.34 -0.01, -75.57 25.70 80
